contact:dominique.lefevre@mio.osupytheas.fr, maurice.libes@osupytheas.fr, didier.mallarino@osupytheas.fr
Project:EMSO http://www.emso-fr.org/EMSO-France
Depth: 2436.0 m
Title:EMSO Ligure Ouest : Data MII capteur MICROCAT
DateTime_Computer,Latitude,Longitude,Temperature,Conductivity,Pressure,DateTime_Instrument
DateTime_Computer,Latitude,Longitude,degC,S m-1,dbar,DateTime_Instrument
2022-07-31T00:01:04Z,42.805,6.029,13.3030,4.60096,2470.73,2022-7-31T02:02:52Z
2022-07-31T00:04:07Z,42.805,6.029,13.3024,4.60106,2470.707,2022-7-31T02:05:55Z
2022-07-31T00:07:11Z,42.805,6.029,13.3021,4.60101,2470.707,2022-7-31T02:08:58Z
2022-07-31T00:10:14Z,42.805,6.029,13.3019,4.60089,2470.693,2022-7-31T02:12:02Z
2022-07-31T00:13:17Z,42.805,6.029,13.3018,4.60089,2470.707,2022-7-31T02:15:05Z
2022-07-31T00:16:20Z,42.805,6.029,13.3028,4.60077,2470.693,2022-7-31T02:18:08Z
2022-07-31T00:19:23Z,42.805,6.029,13.3020,4.60072,2470.67,2022-7-31T02:21:11Z
2022-07-31T00:22:26Z,42.805,6.029,13.3024,4.60089,2470.646,2022-7-31T02:24:14Z
2022-07-31T00:25:29Z,42.805,6.029,13.3020,4.60097,2470.67,2022-7-31T02:27:17Z
2022-07-31T00:28:32Z,42.805,6.029,13.3021,4.60094,2470.646,2022-7-31T02:30:20Z
2022-07-31T00:31:36Z,42.805,6.029,13.3029,4.60095,2470.67,2022-7-31T02:33:23Z
2022-07-31T00:34:39Z,42.805,6.029,13.3025,4.60092,2470.693,2022-7-31T02:36:26Z
2022-07-31T00:37:42Z,42.805,6.029,13.3024,4.60089,2470.661,2022-7-31T02:39:30Z
2022-07-31T00:40:45Z,42.805,6.029,13.3023,4.60102,2470.637,2022-7-31T02:42:33Z
2022-07-31T00:43:48Z,42.805,6.029,13.3026,4.60108,2470.707,2022-7-31T02:45:36Z
2022-07-31T00:46:51Z,42.805,6.029,13.3019,4.60103,2470.661,2022-7-31T02:48:39Z
2022-07-31T00:49:54Z,42.805,6.029,13.3019,4.60077,2470.646,2022-7-31T02:51:42Z
2022-07-31T00:52:57Z,42.805,6.029,13.3020,4.60083,2470.67,2022-7-31T02:54:45Z
2022-07-31T00:56:01Z,42.805,6.029,13.3017,4.60080,2470.646,2022-7-31T02:57:48Z
2022-07-31T00:59:04Z,42.805,6.029,13.3015,4.60091,2470.661,2022-7-31T03:00:51Z
2022-07-31T01:02:07Z,42.805,6.029,13.3023,4.60082,2470.646,2022-7-31T03:03:55Z
2022-07-31T01:05:10Z,42.805,6.029,13.3026,4.60066,2470.624,2022-7-31T03:06:58Z
2022-07-31T01:08:13Z,42.805,6.029,13.3026,4.60100,2470.67,2022-7-31T03:10:01Z
2022-07-31T01:11:16Z,42.805,6.029,13.3022,4.60094,2470.661,2022-7-31T03:13:04Z
2022-07-31T01:14:19Z,42.805,6.029,13.3014,4.60091,2470.646,2022-7-31T03:16:07Z
2022-07-31T01:17:22Z,42.805,6.029,13.3021,4.60084,2470.646,2022-7-31T03:19:10Z
2022-07-31T01:20:26Z,42.805,6.029,13.3024,4.60076,2470.646,2022-7-31T03:22:13Z
2022-07-31T01:23:29Z,42.805,6.029,13.3025,4.60093,2470.637,2022-7-31T03:25:16Z
2022-07-31T01:26:32Z,42.805,6.029,13.3016,4.60092,2470.624,2022-7-31T03:28:20Z
2022-07-31T01:29:35Z,42.805,6.029,13.3019,4.60096,2470.684,2022-7-31T03:31:23Z
2022-07-31T01:32:38Z,42.805,6.029,13.3015,4.60081,2470.637,2022-7-31T03:34:26Z
2022-07-31T01:35:41Z,42.805,6.029,13.3017,4.60076,2470.646,2022-7-31T03:37:29Z
2022-07-31T01:38:44Z,42.805,6.029,13.3018,4.60084,2470.684,2022-7-31T03:40:32Z
2022-07-31T01:41:47Z,42.805,6.029,13.3019,4.60086,2470.624,2022-7-31T03:43:35Z
2022-07-31T01:44:50Z,42.805,6.029,13.3019,4.60079,2470.624,2022-7-31T03:46:38Z
2022-07-31T01:47:54Z,42.805,6.029,13.3012,4.60078,2470.624,2022-7-31T03:49:41Z
2022-07-31T01:50:57Z,42.805,6.029,13.3018,4.60090,2470.614,2022-7-31T03:52:45Z
2022-07-31T01:54:00Z,42.805,6.029,13.3019,4.60102,2470.661,2022-7-31T03:55:48Z
2022-07-31T01:57:03Z,42.805,6.029,13.3016,4.60098,2470.637,2022-7-31T03:58:51Z
2022-07-31T02:00:06Z,42.805,6.029,13.3020,4.60102,2470.637,2022-7-31T04:01:54Z
2022-07-31T02:03:09Z,42.805,6.029,13.3024,4.60091,2470.624,2022-7-31T04:04:57Z
2022-07-31T02:06:12Z,42.805,6.029,13.3022,4.60097,2470.624,2022-7-31T04:08:00Z
2022-07-31T02:09:15Z,42.805,6.029,13.3017,4.60075,2470.637,2022-7-31T04:11:03Z
2022-07-31T02:12:19Z,42.805,6.029,13.3021,4.60094,2470.6,2022-7-31T04:14:06Z
2022-07-31T02:15:22Z,42.805,6.029,13.3019,4.60090,2470.624,2022-7-31T04:17:09Z
2022-07-31T02:18:25Z,42.805,6.029,13.3022,4.60096,2470.624,2022-7-31T04:20:13Z
2022-07-31T02:21:28Z,42.805,6.029,13.3019,4.60097,2470.6,2022-7-31T04:23:16Z
2022-07-31T02:24:31Z,42.805,6.029,13.3034,4.60092,2470.6,2022-7-31T04:26:19Z
2022-07-31T02:27:34Z,42.805,6.029,13.3029,4.60099,2470.6,2022-7-31T04:29:22Z
2022-07-31T02:30:37Z,42.805,6.029,13.3022,4.60092,2470.646,2022-7-31T04:32:25Z
2022-07-31T02:33:40Z,42.805,6.029,13.3014,4.60074,2470.577,2022-7-31T04:35:28Z
2022-07-31T02:36:44Z,42.805,6.029,13.3019,4.60068,2470.6,2022-7-31T04:38:31Z
2022-07-31T02:39:47Z,42.805,6.029,13.3018,4.60082,2470.6,2022-7-31T04:41:34Z
2022-07-31T02:42:50Z,42.805,6.029,13.3021,4.60092,2470.637,2022-7-31T04:44:38Z
2022-07-31T02:45:53Z,42.805,6.029,13.3021,4.60077,2470.577,2022-7-31T04:47:41Z
2022-07-31T02:48:56Z,42.805,6.029,13.3017,4.60081,2470.577,2022-7-31T04:50:44Z
2022-07-31T02:51:59Z,42.805,6.029,13.3016,4.60072,2470.637,2022-7-31T04:53:47Z
2022-07-31T02:55:02Z,42.805,6.029,13.3025,4.60075,2470.6,2022-7-31T04:56:50Z
2022-07-31T02:58:05Z,42.805,6.029,13.3015,4.60071,2470.591,2022-7-31T04:59:53Z
2022-07-31T03:01:08Z,42.805,6.029,13.3023,4.60060,2470.614,2022-7-31T05:02:56Z
2022-07-31T03:04:12Z,42.805,6.029,13.3021,4.60081,2470.6,2022-7-31T05:05:59Z
2022-07-31T03:07:15Z,42.805,6.029,13.3024,4.60080,2470.614,2022-7-31T05:09:03Z
2022-07-31T03:10:18Z,42.805,6.029,13.3017,4.60082,2470.577,2022-7-31T05:12:06Z
2022-07-31T03:13:21Z,42.805,6.029,13.3024,4.60086,2470.624,2022-7-31T05:15:09Z
2022-07-31T03:16:24Z,42.805,6.029,13.3014,4.60087,2470.6,2022-7-31T05:18:12Z
2022-07-31T03:19:27Z,42.805,6.029,13.3019,4.60082,2470.6,2022-7-31T05:21:15Z
2022-07-31T03:22:30Z,42.805,6.029,13.3021,4.60081,2470.6,2022-7-31T05:24:18Z
2022-07-31T03:25:33Z,42.805,6.029,13.3018,4.60090,2470.6,2022-7-31T05:27:21Z
2022-07-31T03:28:37Z,42.805,6.029,13.3019,4.60079,2470.6,2022-7-31T05:30:24Z
2022-07-31T03:31:40Z,42.805,6.029,13.3018,4.60082,2470.6,2022-7-31T05:33:28Z
2022-07-31T03:34:43Z,42.805,6.029,13.3012,4.60072,2470.577,2022-7-31T05:36:31Z
2022-07-31T03:37:46Z,42.805,6.029,13.3015,4.60067,2470.614,2022-7-31T05:39:34Z
2022-07-31T03:40:49Z,42.805,6.029,13.3017,4.60087,2470.577,2022-7-31T05:42:37Z
2022-07-31T03:43:52Z,42.805,6.029,13.3021,4.60078,2470.577,2022-7-31T05:45:40Z
2022-07-31T03:46:55Z,42.805,6.029,13.3029,4.60080,2470.577,2022-7-31T05:48:43Z
2022-07-31T03:49:58Z,42.805,6.029,13.3011,4.60064,2470.577,2022-7-31T05:51:46Z
2022-07-31T03:53:02Z,42.805,6.029,13.3021,4.60072,2470.6,2022-7-31T05:54:49Z
2022-07-31T03:56:05Z,42.805,6.029,13.3015,4.60074,2470.577,2022-7-31T05:57:53Z
2022-07-31T03:59:08Z,42.805,6.029,13.3019,4.60086,2470.563,2022-7-31T06:00:56Z
2022-07-31T04:02:11Z,42.805,6.029,13.3024,4.60086,2470.577,2022-7-31T06:03:59Z
2022-07-31T04:05:14Z,42.805,6.029,13.3021,4.60090,2470.591,2022-7-31T06:07:02Z
2022-07-31T04:08:17Z,42.805,6.029,13.3012,4.60074,2470.614,2022-7-31T06:10:05Z
2022-07-31T04:11:20Z,42.805,6.029,13.3023,4.60092,2470.553,2022-7-31T06:13:08Z
2022-07-31T04:14:23Z,42.805,6.029,13.3021,4.60081,2470.6,2022-7-31T06:16:11Z
2022-07-31T04:17:27Z,42.805,6.029,13.3026,4.60097,2470.553,2022-7-31T06:19:14Z
2022-07-31T04:20:30Z,42.805,6.029,13.3022,4.60086,2470.577,2022-7-31T06:22:17Z
2022-07-31T04:23:33Z,42.805,6.029,13.3011,4.60081,2470.577,2022-7-31T06:25:21Z
2022-07-31T04:26:36Z,42.805,6.029,13.3028,4.60081,2470.577,2022-7-31T06:28:24Z
2022-07-31T04:29:39Z,42.805,6.029,13.3015,4.60078,2470.567,2022-7-31T06:31:27Z
2022-07-31T04:32:42Z,42.805,6.029,13.3020,4.60076,2470.577,2022-7-31T06:34:30Z
2022-07-31T04:35:45Z,42.805,6.029,13.3014,4.60084,2470.577,2022-7-31T06:37:33Z
2022-07-31T04:38:48Z,42.805,6.029,13.3019,4.60076,2470.553,2022-7-31T06:40:36Z
2022-07-31T04:41:52Z,42.805,6.029,13.3023,4.60087,2470.553,2022-7-31T06:43:39Z
2022-07-31T04:44:55Z,42.805,6.029,13.3020,4.60081,2470.577,2022-7-31T06:46:42Z
2022-07-31T04:47:58Z,42.805,6.029,13.3013,4.60077,2470.567,2022-7-31T06:49:46Z
2022-07-31T04:51:01Z,42.805,6.029,13.3020,4.60084,2470.577,2022-7-31T06:52:49Z
2022-07-31T04:54:04Z,42.805,6.029,13.3011,4.60081,2470.614,2022-7-31T06:55:52Z
2022-07-31T04:57:07Z,42.805,6.029,13.3023,4.60079,2470.591,2022-7-31T06:58:55Z
2022-07-31T05:00:10Z,42.805,6.029,13.3019,4.60083,2470.6,2022-7-31T07:01:58Z
2022-07-31T05:03:13Z,42.805,6.029,13.3014,4.60073,2470.577,2022-7-31T07:05:01Z
2022-07-31T05:06:16Z,42.805,6.029,13.3022,4.60077,2470.553,2022-7-31T07:08:04Z
2022-07-31T05:09:20Z,42.805,6.029,13.3015,4.60074,2470.6,2022-7-31T07:11:07Z
2022-07-31T05:12:23Z,42.805,6.029,13.3020,4.60077,2470.577,2022-7-31T07:14:11Z
2022-07-31T05:15:26Z,42.805,6.029,13.3022,4.60077,2470.6,2022-7-31T07:17:14Z
2022-07-31T05:18:29Z,42.805,6.029,13.3017,4.60074,2470.624,2022-7-31T07:20:17Z
2022-07-31T05:21:32Z,42.805,6.029,13.3015,4.60069,2470.6,2022-7-31T07:23:20Z
2022-07-31T05:24:35Z,42.805,6.029,13.3015,4.60076,2470.614,2022-7-31T07:26:23Z
2022-07-31T05:27:38Z,42.805,6.029,13.3017,4.60081,2470.6,2022-7-31T07:29:26Z
2022-07-31T05:30:41Z,42.805,6.029,13.3014,4.60085,2470.614,2022-7-31T07:32:29Z
2022-07-31T05:33:45Z,42.805,6.029,13.3019,4.60085,2470.614,2022-7-31T07:35:32Z
2022-07-31T05:36:48Z,42.805,6.029,13.3023,4.60081,2470.637,2022-7-31T07:38:36Z
2022-07-31T05:39:51Z,42.805,6.029,13.3021,4.60084,2470.637,2022-7-31T07:41:39Z
2022-07-31T05:42:54Z,42.805,6.029,13.3023,4.60081,2470.6,2022-7-31T07:44:42Z
2022-07-31T05:45:57Z,42.805,6.029,13.3020,4.60092,2470.624,2022-7-31T07:47:45Z
2022-07-31T05:49:00Z,42.805,6.029,13.3022,4.60088,2470.637,2022-7-31T07:50:48Z
2022-07-31T05:52:03Z,42.805,6.029,13.3026,4.60087,2470.6,2022-7-31T07:53:51Z
2022-07-31T05:55:06Z,42.805,6.029,13.3019,4.60079,2470.661,2022-7-31T07:56:54Z
2022-07-31T05:58:10Z,42.805,6.029,13.3024,4.60084,2470.6,2022-7-31T07:59:57Z
2022-07-31T06:01:13Z,42.805,6.029,13.3019,4.60073,2470.6,2022-7-31T08:03:01Z
2022-07-31T06:04:16Z,42.805,6.029,13.3017,4.60080,2470.6,2022-7-31T08:06:04Z
2022-07-31T06:07:19Z,42.805,6.029,13.3014,4.60079,2470.6,2022-7-31T08:09:07Z
2022-07-31T06:10:22Z,42.805,6.029,13.3021,4.60085,2470.624,2022-7-31T08:12:10Z
2022-07-31T06:13:25Z,42.805,6.029,13.3020,4.60081,2470.637,2022-7-31T08:15:13Z
2022-07-31T06:16:28Z,42.805,6.029,13.3021,4.60094,2470.624,2022-7-31T08:18:16Z
2022-07-31T06:19:31Z,42.805,6.029,13.3028,4.60081,2470.637,2022-7-31T08:21:19Z
2022-07-31T06:22:35Z,42.805,6.029,13.3014,4.60087,2470.624,2022-7-31T08:24:22Z
2022-07-31T06:25:38Z,42.805,6.029,13.3012,4.60069,2470.637,2022-7-31T08:27:26Z
2022-07-31T06:28:41Z,42.805,6.029,13.3018,4.60064,2470.646,2022-7-31T08:30:29Z
2022-07-31T06:31:44Z,42.805,6.029,13.3013,4.60064,2470.646,2022-7-31T08:33:32Z
2022-07-31T06:34:47Z,42.805,6.029,13.3019,4.60067,2470.661,2022-7-31T08:36:35Z
2022-07-31T06:37:50Z,42.805,6.029,13.3014,4.60077,2470.646,2022-7-31T08:39:38Z
2022-07-31T06:40:53Z,42.805,6.029,13.3015,4.60062,2470.646,2022-7-31T08:42:41Z
2022-07-31T06:43:56Z,42.805,6.029,13.3029,4.60078,2470.684,2022-7-31T08:45:44Z
2022-07-31T06:47:00Z,42.805,6.029,13.3015,4.60081,2470.661,2022-7-31T08:48:47Z
2022-07-31T06:50:03Z,42.805,6.029,13.3019,4.60081,2470.67,2022-7-31T08:51:50Z
2022-07-31T06:53:06Z,42.805,6.029,13.3024,4.60081,2470.646,2022-7-31T08:54:54Z
2022-07-31T06:56:09Z,42.805,6.029,13.3021,4.60085,2470.61,2022-7-31T08:57:57Z
2022-07-31T06:59:12Z,42.805,6.029,13.3026,4.60095,2470.661,2022-7-31T09:01:00Z
2022-07-31T07:02:15Z,42.805,6.029,13.3020,4.60069,2470.67,2022-7-31T09:04:03Z
2022-07-31T07:05:18Z,42.805,6.029,13.3024,4.60085,2470.67,2022-7-31T09:07:06Z
2022-07-31T07:08:21Z,42.805,6.029,13.3014,4.60074,2470.684,2022-7-31T09:10:09Z
2022-07-31T07:11:24Z,42.805,6.029,13.3020,4.60066,2470.67,2022-7-31T09:13:12Z
2022-07-31T07:14:28Z,42.805,6.029,13.3020,4.60079,2470.646,2022-7-31T09:16:15Z
2022-07-31T07:17:31Z,42.805,6.029,13.3015,4.60075,2470.646,2022-7-31T09:19:19Z
2022-07-31T07:20:34Z,42.805,6.029,13.3021,4.60079,2470.646,2022-7-31T09:22:22Z
2022-07-31T07:23:37Z,42.805,6.029,13.3016,4.60074,2470.684,2022-7-31T09:25:25Z
2022-07-31T07:26:40Z,42.805,6.029,13.3021,4.60076,2470.707,2022-7-31T09:28:28Z
2022-07-31T07:29:43Z,42.805,6.029,13.3013,4.60072,2470.693,2022-7-31T09:31:31Z
2022-07-31T07:32:46Z,42.805,6.029,13.3028,4.60083,2470.693,2022-7-31T09:34:34Z
2022-07-31T07:35:49Z,42.805,6.029,13.3017,4.60080,2470.693,2022-7-31T09:37:37Z
2022-07-31T07:38:53Z,42.805,6.029,13.3018,4.60080,2470.684,2022-7-31T09:40:40Z
2022-07-31T07:41:56Z,42.805,6.029,13.3017,4.60074,2470.693,2022-7-31T09:43:44Z
2022-07-31T07:44:59Z,42.805,6.029,13.3015,4.60077,2470.693,2022-7-31T09:46:47Z
2022-07-31T07:48:02Z,42.805,6.029,13.3014,4.60066,2470.707,2022-7-31T09:49:50Z
2022-07-31T07:51:05Z,42.805,6.029,13.3018,4.60084,2470.684,2022-7-31T09:52:53Z
2022-07-31T07:54:08Z,42.805,6.029,13.3015,4.60070,2470.707,2022-7-31T09:55:56Z
2022-07-31T07:57:11Z,42.805,6.029,13.3021,4.60084,2470.717,2022-7-31T09:58:59Z
2022-07-31T08:00:14Z,42.805,6.029,13.3013,4.60091,2470.717,2022-7-31T10:02:02Z
2022-07-31T08:03:18Z,42.805,6.029,13.3020,4.60079,2470.684,2022-7-31T10:05:05Z
2022-07-31T08:06:21Z,42.805,6.029,13.3019,4.60080,2470.693,2022-7-31T10:08:08Z
2022-07-31T08:09:24Z,42.805,6.029,13.3016,4.60078,2470.693,2022-7-31T10:11:12Z
2022-07-31T08:12:27Z,42.805,6.029,13.3017,4.60084,2470.693,2022-7-31T10:14:15Z
2022-07-31T08:15:30Z,42.805,6.029,13.3015,4.60072,2470.679,2022-7-31T10:17:18Z
2022-07-31T08:18:33Z,42.805,6.029,13.3019,4.60069,2470.707,2022-7-31T10:20:21Z
2022-07-31T08:21:36Z,42.805,6.029,13.3016,4.60084,2470.67,2022-7-31T10:23:24Z
2022-07-31T08:24:39Z,42.805,6.029,13.3015,4.60069,2470.646,2022-7-31T10:26:27Z
2022-07-31T08:27:43Z,42.805,6.029,13.3014,4.60075,2470.717,2022-7-31T10:29:30Z
2022-07-31T08:30:46Z,42.805,6.029,13.3018,4.60070,2470.73,2022-7-31T10:32:33Z
2022-07-31T08:33:49Z,42.805,6.029,13.3015,4.60084,2470.707,2022-7-31T10:35:37Z
2022-07-31T08:36:52Z,42.805,6.029,13.3014,4.60074,2470.73,2022-7-31T10:38:40Z
2022-07-31T08:39:55Z,42.805,6.029,13.3021,4.60096,2470.67,2022-7-31T10:41:43Z
2022-07-31T08:42:58Z,42.805,6.029,13.3019,4.60084,2470.684,2022-7-31T10:44:46Z
2022-07-31T08:46:01Z,42.805,6.029,13.3011,4.60069,2470.73,2022-7-31T10:47:49Z
2022-07-31T08:49:04Z,42.805,6.029,13.3019,4.60077,2470.684,2022-7-31T10:50:52Z
2022-07-31T08:52:08Z,42.805,6.029,13.3020,4.60074,2470.661,2022-7-31T10:53:55Z
2022-07-31T08:55:11Z,42.805,6.029,13.3020,4.60068,2470.693,2022-7-31T10:56:59Z
2022-07-31T08:58:14Z,42.805,6.029,13.3017,4.60077,2470.717,2022-7-31T11:00:02Z
2022-07-31T09:01:17Z,42.805,6.029,13.3019,4.60064,2470.646,2022-7-31T11:03:05Z
2022-07-31T09:04:20Z,42.805,6.029,13.3015,4.60078,2470.693,2022-7-31T11:06:08Z
2022-07-31T09:07:23Z,42.805,6.029,13.3018,4.60078,2470.693,2022-7-31T11:09:11Z
2022-07-31T09:10:26Z,42.805,6.029,13.3015,4.60078,2470.693,2022-7-31T11:12:14Z
2022-07-31T09:13:29Z,42.805,6.029,13.3023,4.60076,2470.693,2022-7-31T11:15:17Z
2022-07-31T09:16:33Z,42.805,6.029,13.3020,4.60081,2470.67,2022-7-31T11:18:20Z
2022-07-31T09:19:36Z,42.805,6.029,13.3015,4.60079,2470.707,2022-7-31T11:21:24Z
2022-07-31T09:22:39Z,42.805,6.029,13.3025,4.60084,2470.67,2022-7-31T11:24:27Z
2022-07-31T09:25:42Z,42.805,6.029,13.3017,4.60067,2470.684,2022-7-31T11:27:30Z
2022-07-31T09:28:45Z,42.805,6.029,13.3014,4.60078,2470.67,2022-7-31T11:30:33Z
2022-07-31T09:31:48Z,42.805,6.029,13.3021,4.60069,2470.684,2022-7-31T11:33:36Z
2022-07-31T09:34:51Z,42.805,6.029,13.3021,4.60066,2470.684,2022-7-31T11:36:39Z
2022-07-31T09:37:54Z,42.805,6.029,13.3011,4.60068,2470.67,2022-7-31T11:39:42Z
2022-07-31T09:40:58Z,42.805,6.029,13.3025,4.60086,2470.67,2022-7-31T11:42:45Z
2022-07-31T09:44:01Z,42.805,6.029,13.3025,4.60087,2470.684,2022-7-31T11:45:49Z
2022-07-31T09:47:04Z,42.805,6.029,13.3024,4.60084,2470.67,2022-7-31T11:48:52Z
2022-07-31T09:50:07Z,42.805,6.029,13.3019,4.60075,2470.67,2022-7-31T11:51:55Z
2022-07-31T09:53:10Z,42.805,6.029,13.3020,4.60088,2470.637,2022-7-31T11:54:58Z
2022-07-31T09:56:13Z,42.805,6.029,13.3021,4.60074,2470.684,2022-7-31T11:58:01Z
2022-07-31T09:59:16Z,42.805,6.029,13.3024,4.60078,2470.646,2022-7-31T12:01:04Z
2022-07-31T10:02:19Z,42.805,6.029,13.3018,4.60078,2470.646,2022-7-31T12:04:07Z
2022-07-31T10:05:23Z,42.805,6.029,13.3016,4.60081,2470.624,2022-7-31T12:07:10Z
2022-07-31T10:08:26Z,42.805,6.029,13.3024,4.60079,2470.67,2022-7-31T12:10:14Z
2022-07-31T10:11:29Z,42.805,6.029,13.3019,4.60076,2470.646,2022-7-31T12:13:17Z
2022-07-31T10:14:32Z,42.805,6.029,13.3022,4.60072,2470.646,2022-7-31T12:16:20Z
2022-07-31T10:17:35Z,42.805,6.029,13.3019,4.60080,2470.646,2022-7-31T12:19:23Z
2022-07-31T10:20:38Z,42.805,6.029,13.3011,4.60082,2470.661,2022-7-31T12:22:26Z
2022-07-31T10:23:41Z,42.805,6.029,13.3024,4.60085,2470.661,2022-7-31T12:25:29Z
2022-07-31T10:26:44Z,42.805,6.029,13.3021,4.60078,2470.67,2022-7-31T12:28:32Z
2022-07-31T10:29:48Z,42.805,6.029,13.3019,4.60079,2470.661,2022-7-31T12:31:35Z
2022-07-31T10:32:51Z,42.805,6.029,13.3021,4.60075,2470.646,2022-7-31T12:34:39Z
2022-07-31T10:35:54Z,42.805,6.029,13.3016,4.60082,2470.661,2022-7-31T12:37:42Z
2022-07-31T10:38:57Z,42.805,6.029,13.3019,4.60075,2470.637,2022-7-31T12:40:45Z
2022-07-31T10:42:00Z,42.805,6.029,13.3011,4.60085,2470.624,2022-7-31T12:43:48Z
2022-07-31T10:45:03Z,42.805,6.029,13.3017,4.60071,2470.646,2022-7-31T12:46:51Z
2022-07-31T10:48:06Z,42.805,6.029,13.3013,4.60079,2470.646,2022-7-31T12:49:54Z
2022-07-31T10:51:09Z,42.805,6.029,13.3015,4.60083,2470.6,2022-7-31T12:52:57Z
2022-07-31T10:54:13Z,42.805,6.029,13.3014,4.60077,2470.661,2022-7-31T12:56:00Z
2022-07-31T10:57:16Z,42.805,6.029,13.3014,4.60069,2470.624,2022-7-31T12:59:04Z
2022-07-31T11:00:19Z,42.805,6.029,13.3016,4.60069,2470.6,2022-7-31T13:02:07Z
2022-07-31T11:03:22Z,42.805,6.029,13.3021,4.60064,2470.661,2022-7-31T13:05:10Z
2022-07-31T11:06:25Z,42.805,6.029,13.3019,4.60067,2470.624,2022-7-31T13:08:13Z
2022-07-31T11:09:28Z,42.805,6.029,13.3015,4.60082,2470.646,2022-7-31T13:11:16Z
2022-07-31T11:12:31Z,42.805,6.029,13.3016,4.60073,2470.6,2022-7-31T13:14:19Z
2022-07-31T11:15:34Z,42.805,6.029,13.3014,4.60074,2470.6,2022-7-31T13:17:22Z
2022-07-31T11:18:38Z,42.805,6.029,13.3018,4.60081,2470.637,2022-7-31T13:20:25Z
2022-07-31T11:21:41Z,42.805,6.029,13.3016,4.60079,2470.624,2022-7-31T13:23:29Z
2022-07-31T11:24:44Z,42.805,6.029,13.3016,4.60064,2470.637,2022-7-31T13:26:32Z
2022-07-31T11:27:47Z,42.805,6.029,13.3014,4.60070,2470.6,2022-7-31T13:29:35Z
2022-07-31T11:30:50Z,42.805,6.029,13.3011,4.60067,2470.6,2022-7-31T13:32:38Z
2022-07-31T11:33:53Z,42.805,6.029,13.3014,4.60087,2470.637,2022-7-31T13:35:41Z
2022-07-31T11:36:56Z,42.805,6.029,13.3012,4.60080,2470.6,2022-7-31T13:38:44Z
2022-07-31T11:39:59Z,42.805,6.029,13.3017,4.60064,2470.591,2022-7-31T13:41:47Z
2022-07-31T11:43:03Z,42.805,6.029,13.3015,4.60064,2470.624,2022-7-31T13:44:50Z
2022-07-31T11:46:06Z,42.805,6.029,13.3013,4.60067,2470.577,2022-7-31T13:47:54Z
2022-07-31T11:49:09Z,42.805,6.029,13.3015,4.60060,2470.624,2022-7-31T13:50:57Z
2022-07-31T11:52:12Z,42.805,6.029,13.3017,4.60081,2470.6,2022-7-31T13:54:00Z
2022-07-31T11:55:15Z,42.805,6.029,13.3012,4.60079,2470.577,2022-7-31T13:57:03Z
2022-07-31T11:58:18Z,42.805,6.029,13.3020,4.60067,2470.61,2022-7-31T14:00:06Z
2022-07-31T12:01:21Z,42.805,6.029,13.3008,4.60062,2470.591,2022-7-31T14:03:09Z
2022-07-31T12:04:24Z,42.805,6.029,13.3019,4.60073,2470.577,2022-7-31T14:06:12Z
2022-07-31T12:07:28Z,42.805,6.029,13.3014,4.60064,2470.6,2022-7-31T14:09:15Z
2022-07-31T12:10:31Z,42.805,6.029,13.3015,4.60071,2470.614,2022-7-31T14:12:19Z
2022-07-31T12:13:34Z,42.805,6.029,13.3009,4.60055,2470.614,2022-7-31T14:15:22Z
2022-07-31T12:16:37Z,42.805,6.029,13.3010,4.60056,2470.591,2022-7-31T14:18:25Z
2022-07-31T12:19:40Z,42.805,6.029,13.3014,4.60069,2470.577,2022-7-31T14:21:28Z
2022-07-31T12:22:43Z,42.805,6.029,13.3016,4.60064,2470.567,2022-7-31T14:24:31Z
2022-07-31T12:25:46Z,42.805,6.029,13.3017,4.60064,2470.577,2022-7-31T14:27:34Z
2022-07-31T12:28:49Z,42.805,6.029,13.3015,4.60074,2470.577,2022-7-31T14:30:37Z
2022-07-31T12:31:53Z,42.805,6.029,13.3013,4.60067,2470.53,2022-7-31T14:33:40Z
2022-07-31T12:34:56Z,42.805,6.029,13.3014,4.60074,2470.567,2022-7-31T14:36:44Z
2022-07-31T12:37:59Z,42.805,6.029,13.3015,4.60062,2470.577,2022-7-31T14:39:47Z
2022-07-31T12:41:02Z,42.805,6.029,13.3013,4.60076,2470.544,2022-7-31T14:42:50Z
2022-07-31T12:44:05Z,42.805,6.029,13.3013,4.60072,2470.553,2022-7-31T14:45:53Z
2022-07-31T12:47:08Z,42.805,6.029,13.3014,4.60083,2470.577,2022-7-31T14:48:56Z
2022-07-31T12:50:11Z,42.805,6.029,13.3014,4.60091,2470.53,2022-7-31T14:51:59Z
2022-07-31T12:53:14Z,42.805,6.029,13.3013,4.60077,2470.567,2022-7-31T14:55:02Z
2022-07-31T12:56:18Z,42.805,6.029,13.3010,4.60062,2470.553,2022-7-31T14:58:05Z
2022-07-31T12:59:21Z,42.805,6.029,13.3014,4.60067,2470.567,2022-7-31T15:01:09Z
2022-07-31T13:02:24Z,42.805,6.029,13.3016,4.60074,2470.553,2022-7-31T15:04:12Z
2022-07-31T13:05:27Z,42.805,6.029,13.3013,4.60072,2470.544,2022-7-31T15:07:15Z
2022-07-31T13:08:30Z,42.805,6.029,13.3021,4.60065,2470.53,2022-7-31T15:10:18Z
2022-07-31T13:11:33Z,42.805,6.029,13.3010,4.60074,2470.553,2022-7-31T15:13:21Z
2022-07-31T13:14:36Z,42.805,6.029,13.3021,4.60084,2470.53,2022-7-31T15:16:24Z
2022-07-31T13:17:39Z,42.805,6.029,13.3021,4.60072,2470.553,2022-7-31T15:19:27Z
2022-07-31T13:20:43Z,42.805,6.029,13.3024,4.60077,2470.553,2022-7-31T15:22:30Z
2022-07-31T13:23:46Z,42.805,6.029,13.3014,4.60071,2470.507,2022-7-31T15:25:34Z
2022-07-31T13:26:49Z,42.805,6.029,13.3016,4.60072,2470.53,2022-7-31T15:28:37Z
2022-07-31T13:29:52Z,42.805,6.029,13.3017,4.60070,2470.53,2022-7-31T15:31:40Z
2022-07-31T13:32:55Z,42.805,6.029,13.3013,4.60062,2470.553,2022-7-31T15:34:43Z
2022-07-31T13:35:58Z,42.805,6.029,13.3011,4.60067,2470.544,2022-7-31T15:37:46Z
2022-07-31T13:39:01Z,42.805,6.029,13.3018,4.60060,2470.507,2022-7-31T15:40:49Z
2022-07-31T13:42:04Z,42.805,6.029,13.3016,4.60072,2470.493,2022-7-31T15:43:52Z
2022-07-31T13:45:08Z,42.805,6.029,13.3014,4.60069,2470.507,2022-7-31T15:46:55Z
2022-07-31T13:48:11Z,42.805,6.029,13.3018,4.60069,2470.52,2022-7-31T15:49:59Z
2022-07-31T13:51:14Z,42.805,6.029,13.3014,4.60080,2470.53,2022-7-31T15:53:02Z
2022-07-31T13:54:17Z,42.805,6.029,13.3017,4.60070,2470.53,2022-7-31T15:56:05Z
2022-07-31T13:57:20Z,42.805,6.029,13.3020,4.60067,2470.507,2022-7-31T15:59:08Z
2022-07-31T14:00:23Z,42.805,6.029,13.3012,4.60068,2470.516,2022-7-31T16:02:11Z
2022-07-31T14:03:26Z,42.805,6.029,13.3016,4.60069,2470.53,2022-7-31T16:05:14Z
2022-07-31T14:06:29Z,42.805,6.029,13.3014,4.60074,2470.544,2022-7-31T16:08:17Z
2022-07-31T14:09:33Z,42.805,6.029,13.3009,4.60069,2470.507,2022-7-31T16:11:20Z
2022-07-31T14:12:36Z,42.805,6.029,13.3024,4.60074,2470.52,2022-7-31T16:14:24Z
2022-07-31T14:15:39Z,42.805,6.029,13.3014,4.60079,2470.53,2022-7-31T16:17:27Z
2022-07-31T14:18:42Z,42.805,6.029,13.3013,4.60069,2470.544,2022-7-31T16:20:30Z
2022-07-31T14:21:45Z,42.805,6.029,13.3011,4.60074,2470.553,2022-7-31T16:23:33Z
2022-07-31T14:24:48Z,42.805,6.029,13.3012,4.60072,2470.544,2022-7-31T16:26:36Z
2022-07-31T14:27:51Z,42.805,6.029,13.3013,4.60072,2470.544,2022-7-31T16:29:39Z
2022-07-31T14:30:55Z,42.805,6.029,13.3011,4.60062,2470.53,2022-7-31T16:32:42Z
2022-07-31T14:33:58Z,42.805,6.029,13.3019,4.60057,2470.507,2022-7-31T16:35:46Z
2022-07-31T14:37:01Z,42.805,6.029,13.3014,4.60063,2470.553,2022-7-31T16:38:49Z
2022-07-31T14:40:04Z,42.805,6.029,13.3012,4.60068,2470.52,2022-7-31T16:41:52Z
2022-07-31T14:43:07Z,42.805,6.029,13.3006,4.60069,2470.483,2022-7-31T16:44:55Z
2022-07-31T14:46:10Z,42.805,6.029,13.3026,4.60059,2470.544,2022-7-31T16:47:58Z
2022-07-31T14:49:13Z,42.805,6.029,13.3011,4.60064,2470.52,2022-7-31T16:51:01Z
2022-07-31T14:52:16Z,42.805,6.029,13.3015,4.60069,2470.53,2022-7-31T16:54:04Z
2022-07-31T14:55:19Z,42.805,6.029,13.3018,4.60066,2470.507,2022-7-31T16:57:07Z
2022-07-31T14:58:23Z,42.805,6.029,13.3015,4.60071,2470.507,2022-7-31T17:00:11Z
2022-07-31T15:01:26Z,42.805,6.029,13.3011,4.60065,2470.53,2022-7-31T17:03:14Z
2022-07-31T15:04:29Z,42.805,6.029,13.3018,4.60081,2470.53,2022-7-31T17:06:17Z
2022-07-31T15:07:32Z,42.805,6.029,13.3012,4.60072,2470.53,2022-7-31T17:09:20Z
2022-07-31T15:10:35Z,42.805,6.029,13.3012,4.60076,2470.507,2022-7-31T17:12:23Z
2022-07-31T15:13:38Z,42.805,6.029,13.3016,4.60101,2470.507,2022-7-31T17:15:26Z